TimeCST,TemperatureF,Dew PointF,Humidity,Sea Level PressureIn,VisibilityMPH,Wind Direction,Wind SpeedMPH,Gust SpeedMPH,PrecipitationIn,Events,Conditions,WindDirDegrees,DateUTC
2:50 AM,63,62,97,30.01,4,Calm,Calm,,,,Partly Cloudy,,2012-11-02 08:50:00
5:50 AM,62,61,96,30.04,4,Calm,Calm,,,,Scattered Clouds,,2012-11-02 11:50:00
6:04 AM,69.8,64.4,83,30.02,6.0,South,11.5,-,N/A,,Partly Cloudy,180,2012-11-02 12:04:00
6:42 AM,69.8,64.4,83,30.01,6.0,SSE,6.9,-,N/A,,Partly Cloudy,160,2012-11-02 12:42:00
7:40 AM,71.6,64.4,78,30.02,6.0,SSE,8.1,-,N/A,,Clear,150,2012-11-02 13:40:00
8:41 AM,75.2,64.4,69,30.01,6.0,South,12.7,-,N/A,,Clear,170,2012-11-02 14:41:00
8:50 AM,72,68,83,30.07,6,Calm,Calm,,,,,,2012-11-02 14:50:00
9:43 AM,78.8,62.6,57,30.03,6.0,SSE,6.9,-,N/A,,Clear,160,2012-11-02 15:43:00
10:45 AM,80.6,62.6,54,30.02,6.0,South,10.4,-,N/A,,Clear,180,2012-11-02 16:45:00
11:42 AM,84.2,60.8,45,30.02,6.0,SSE,8.1,-,N/A,,Clear,150,2012-11-02 17:42:00
11:50 AM,86,65,40,30.03,6,Calm,Calm,,,,,,2012-11-02 17:50:00
12:49 PM,84.2,59.0,42,29.96,6.0,South,6.9,-,N/A,,Clear,180,2012-11-02 18:49:00
1:43 PM,86.0,57.2,37,29.93,6.0,South,5.8,-,N/A,,Partly Cloudy,180,2012-11-02 19:43:00
2:50 PM,91,64,31,29.93,6,East,8.9,,,,Partly Cloudy,90,2012-11-02 20:50:00
2:53 PM,86.0,55.4,35,29.93,6.0,South,13.8,25.3,N/A,,Partly Cloudy,170,2012-11-02 20:53:00
3:52 PM,86.0,53.6,33,29.90,6.0,South,15.0,-,N/A,,Partly Cloudy,180,2012-11-02 21:52:00
4:49 PM,84.2,53.6,35,29.91,6.0,South,10.4,-,N/A,,Scattered Clouds,170,2012-11-02 22:49:00
5:45 PM,80.6,55.4,42,29.92,6.0,SSE,8.1,-,N/A,,Scattered Clouds,160,2012-11-02 23:45:00
5:50 PM,81,65,48,29.93,6,SE,4.5,,,,Mostly Cloudy,140,2012-11-02 23:50:00
6:41 PM,78.8,59.0,51,29.94,6.0,South,4.6,-,N/A,,Scattered Clouds,170,2012-11-03 00:41:00
7:40 PM,77.0,59.0,54,29.95,6.0,South,6.9,-,N/A,,Scattered Clouds,190,2012-11-03 01:40:00
8:45 PM,78,65,57,29.96,4,SSE,2.2,,,,Partly Cloudy,160,2012-11-03 02:45:00
11:45 PM,72,63,67,29.99,4,Calm,Calm,,,,,,2012-11-03 05:45:00